Tri-Cities, TN

5:16 PM EST on December 05, 2019 (GMT -0500)
Tri-Cities Regional Tennessee / Virginia

Weather History for KTRI - October, 2019

Change the Weather History Date:

Tuesday, October 1, 2019

  Actual Average Record
Temperature  
Mean Temperature 80 °F 61 °F  
Max Temperature 93 °F 74 °F 93 °F (2019)
Min Temperature 66 °F 49 °F 31 °F (1947)
Degree Days  
Heating Degree Days 0 5  
Month to date heating degree days 5  
Since 1 July heating degree days 58  
Cooling Degree Days 14 1  
Month to date cooling degree days 1  
Year to date cooling degree days 969  
Growing Degree Days 30 (Base 50)    
Moisture  
Dew Point 65 °F    
Average Humidity 71    
Maximum Humidity 93    
Minimum Humidity 38    
Precipitation  
Precipitation 0.00 in 0.07 in 0.95 in (1966)
Month to date precipitation 0.07  
Year to date precipitation 32.51  
Snow  
Snow 0.00 in 0.00 in - ()
Month to date snowfall 0.0  
Since 1 July snowfall 0.0  
Since 1 September snowfall 0.0  
Snow Depth -    
Sea Level Pressure  
Sea Level Pressure 30.07 in    
Wind  
Wind Speed 2 mph (WSW)    
Max Wind Speed 12 mph    
Max Gust Speed -    
Visibility 9 miles    
Events      
T = Trace of Precipitation, MM = Missing Value Source: NWS Daily Summary

Daily Weather History Graph

Daily Weather History Graph

Search for Another Location

Airport or City:

Astronomy

Oct. 01, 2019 Rise Set
Actual Time 7:24 AM EDT 7:13 PM EDT
Civil Twilight 6:58 AM EDT 7:39 PM EDT
Nautical Twilight 6:29 AM EDT 8:08 PM EDT
Astronomical Twilight 5:58 AM EDT 8:39 PM EDT
Moon 10:34 AM EDT (10/1) 9:31 PM EDT (10/1)
Length of Visible Light 12h 40m
Length of Day
11h 48m
Waxing Crescent, 12% of the Moon is Illuminated
Oct 1
Waxing Crescent
Oct 5
First Quarter
Oct 13
Full
Oct 21
Last Quarter
Oct 27
New

Hourly Weather History & Observations

Time (EDT) Temp. Heat Index Dew Point Humidity Pressure Visibility Wind Dir Wind Speed Gust Speed Precip Events Conditions
12:53 AM 68.0 °F - 66.0 °F 93% 30.09 in 8.0 mi Calm Calm - N/A   Clear
1:53 AM 68.0 °F - 66.0 °F 93% 30.09 in 8.0 mi Calm Calm - N/A   Clear
2:53 AM 66.9 °F - 64.9 °F 93% 30.08 in 8.0 mi Calm Calm - N/A   Clear
3:53 AM 66.0 °F - 64.0 °F 93% 30.08 in 7.0 mi Calm Calm - N/A   Clear
4:53 AM 66.0 °F - 64.0 °F 93% 30.08 in 6.0 mi Calm Calm - N/A   Mostly Cloudy
5:53 AM 66.9 °F - 64.9 °F 93% 30.09 in 6.0 mi Calm Calm - N/A   Overcast
6:53 AM 66.9 °F - 64.9 °F 93% 30.11 in 6.0 mi Calm Calm - N/A   Mostly Cloudy
7:53 AM 66.0 °F - 64.0 °F 93% 30.13 in 6.0 mi Calm Calm - N/A   Mostly Cloudy
8:53 AM 71.1 °F - 66.9 °F 87% 30.13 in 9.0 mi East 3.5 mph - N/A   Scattered Clouds
9:53 AM 73.9 °F - 66.9 °F 79% 30.14 in 9.0 mi Calm Calm - N/A   Scattered Clouds
10:53 AM 77.0 °F - 66.9 °F 71% 30.14 in 10.0 mi Calm Calm - N/A   Scattered Clouds
11:53 AM 82.9 °F 85.8 °F 68.0 °F 60% 30.13 in 10.0 mi Calm Calm - N/A   Partly Cloudy
12:53 PM 87.1 °F 89.9 °F 66.9 °F 51% 30.10 in 10.0 mi Variable 3.5 mph - N/A   Partly Cloudy
1:53 PM 89.1 °F 92.1 °F 66.9 °F 48% 30.07 in 10.0 mi Variable 4.6 mph - N/A   Scattered Clouds
2:53 PM 91.9 °F 93.3 °F 64.0 °F 39% 30.04 in 10.0 mi SW 11.5 mph - N/A   Scattered Clouds
3:53 PM 93.0 °F 94.6 °F 64.0 °F 38% 30.02 in 10.0 mi West 10.4 mph - N/A   Scattered Clouds
4:53 PM 91.9 °F 93.3 °F 64.0 °F 39% 30.01 in 10.0 mi West 8.1 mph - N/A   Scattered Clouds
5:53 PM 90.0 °F 90.6 °F 63.0 °F 40% 30.01 in 10.0 mi WSW 6.9 mph - N/A   Scattered Clouds
6:53 PM 88.0 °F 89.3 °F 64.0 °F 45% 30.01 in 10.0 mi West 5.8 mph - N/A   Scattered Clouds
7:53 PM 82.9 °F 85.0 °F 66.0 °F 56% 30.02 in 10.0 mi SW 3.5 mph - N/A   Scattered Clouds
8:53 PM 77.0 °F - 66.0 °F 69% 30.02 in 10.0 mi Calm Calm - N/A   Scattered Clouds
9:53 PM 73.0 °F - 66.0 °F 79% 30.02 in 10.0 mi Calm Calm - N/A   Partly Cloudy
10:53 PM 72.0 °F - 66.0 °F 81% 30.02 in 10.0 mi Calm Calm - N/A   Partly Cloudy
11:53 PM 70.0 °F - 64.9 °F 84% 30.01 in 10.0 mi Calm Calm - N/A   Clear